Regional Weather Roundup
Issued by NWS

Home | Current Version | Previous Version | Text Only | Print | Product List | Glossary Off
Versions: 1 2 3 4 5 6 7 8 9 10 11 12 13 14 15 16 17 18 19 20 21 22 23 24 25 26 27 28 29 30 31 32 33 34 35 36 37 38 39 40 41 42 43 44 45 46 47 48 49 50

000
ASUS43 KIND 180409
RWRIN

WEATHER ROUNDUP FOR INDIANA
NATIONAL WEATHER SERVICE INDIANAPOLIS IN
1200 AM EDT THU SEP 18 2014

NOTE: "FAIR" INDICATES FEW OR NO CLOUDS BELOW 12,000 FEET WITH NO
SIGNIFICANT WEATHER AND/OR OBSTRUCTIONS TO VISIBILITY.

* - STATION DOES NOT REPORT WEATHER SUCH AS PRECIPITATION OR FOG.

+ - STATION NOT QUALITY CONTROLLED BY THE NATIONAL WEATHER SERVICE.
    USE DATA WITH CAUTION...ESPECIALLY DEWPOINT AND RELATIVE
    HUMIDITY OBSERVATIONS.

INZ001>003-010>013-019-020-180500-
NORTHWEST INDIANA

CITY           SKY/WX    TMP DP  RH WIND       PRES   REMARKS
GARY /AIRPORT/ CLEAR     50  48  93 SE3       30.04S
KNOX *+        CLEAR     48  46  92 CALM      30.03S
LA PORTE +     CLEAR     46  45  97 CALM      30.04S
MICHIGAN CITY+ CLEAR     46  46 100 CALM      30.04S
MONTICELLO +   CLEAR     53  49  86 NE3       30.03R
RENSSELAER +   CLEAR     50  50 100 CALM      30.04R
VALPARAISO     CLEAR     50  46  86 NE3       30.04R

$$

LMZ046-743>745-180500-
SOUTHERN LAKE MICHIGAN

STATION/POSITION TIME  TEMP WIND        PRES
                       AIR  DIR/SP/G
                 (UTC) (F)  (DEG/KT/KT) (MB)
MICHIGAN CITY    0400   57  100/  6/  6   N/A

$$

INZ004-005-014>016-021>024-180500-
NORTH CENTRAL INDIANA

CITY           SKY/WX    TMP DP  RH WIND       PRES   REMARKS
GOSHEN         CLEAR     46  43  89 CALM      30.04R
LOGANSPORT +   CLEAR     54  45  71 CALM      30.04R
PERU/GRISSOM   CLEAR     52  52  99 NE3       30.03R
ROCHESTER +    CLEAR     52  46  82 CALM      30.04S
SOUTH BEND     CLEAR     49  45  86 CALM      30.04S
WARSAW +       CLEAR     46  45  93 CALM      30.04R

$$

INZ006>009-017-018-025>027-180500-
NORTHEAST INDIANA

CITY           SKY/WX    TMP DP  RH WIND       PRES   REMARKS
ANGOLA *+      CLEAR     48  48 100 CALM      30.03S
AUBURN +       CLEAR     50  45  81 CALM      30.04R
FORT WAYNE     CLEAR     52  47  83 NW6       30.03R
HUNTINGTON +   CLEAR     52  47  84 N3        30.03R

$$

INZ028-029-035-036-043>045-051>053-180500-
WEST CENTRAL INDIANA

CITY           SKY/WX    TMP DP  RH WIND       PRES   REMARKS
GREENCASTLE +  CLEAR     50  50 100 CALM      30.04S
LAFAYETTE      MOCLDY    52  51  97 CALM      30.03R
TERRE HAUTE    PTCLDY    52  50  93 NE3       30.03R FOG

$$

INZ030>032-037>040-046>048-054>057-064-065-180500-
CENTRAL INDIANA

CITY           SKY/WX    TMP DP  RH WIND       PRES   REMARKS
CP ATTERBURY + CLEAR     50  48  93 CALM      30.04R FOG
FRANKFORT +    PTCLDY   N/A N/A N/A CALM      30.04R
INDIANAPOLIS   CLEAR     54  50  86 W6        30.02S
-EAGLE CREEK   CLEAR     56  50  80 W3        30.02S
KOKOMO *+      CLEAR     50  46  87 CALM      30.04R
MARION +       CLEAR     48  46  94 CALM      30.04R
MT COMFORT *+  CLEAR     50 N/A N/A S3        30.04R
SHELBYVILLE    CLEAR     52  48  86 CALM      30.03R
ZIONSVILLE +   CLEAR     52  49  89 CALM      30.04S

$$

INZ033-034-041-042-049-050-058-059-180500-
EAST CENTRAL INDIANA

CITY           SKY/WX    TMP DP  RH WIND       PRES   REMARKS
MUNCIE         CLEAR     51  48  89 CALM      30.02R

$$

INZ060-061-067>069-081>083-085>088-180500-
SOUTHWEST INDIANA

CITY           SKY/WX    TMP DP  RH WIND       PRES   REMARKS
EVANSVILLE     CLOUDY    63  55  75 NE5       30.01R
WASHINGTON +   MOCLDY    55  54  98 CALM      30.02R

$$

INZ062-063-066-070>080-084-089>092-180500-
SOUTH CENTRAL AND SOUTHEAST INDIANA

CITY           SKY/WX    TMP DP  RH WIND       PRES   REMARKS
BEDFORD +      PTCLDY    54  50  87 CALM      30.03R
BLOOMINGTON    PTCLDY    50  48  93 CALM      30.03R FOG
SEYMOUR +      CLEAR     54  52  94 CALM      30.02  FOG

$$




USA.gov is the U.S. government's official web portal to all federal, state and local government web resources and services.